Location: Dehesa de la Cepeda
(40.6574°N, 4.3013°W)
Time: 09:06:38
(UTC+00:00)

Cosmos 1980 - Pass Details

Date: 05 July 2020
Orbit: 839 x 847 km, 71.0° (Epoch: 07 August)

Event Time Altitude Azimuth Distance (km) Brightness Sun altitude
Exits shadow 21:56:38 29° 123° (ESE) 1,481 4.4 -18.2°
Maximum altitude 21:57:37 31° 104° (ESE) 1,427 4.5 -18.3°
Drops below altitude 10° 22:02:30 10° 43° (NE) 2,461 6.3 -18.9°
Sets 22:05:11 0° 34° (NE) 3,400 7.2 -19.1°
